Location: Grand Lay
(47.3253°N, 0.9468°E)
Time: 14:40:53
(UTC+00:00)

Cosmos 2082 Rocket - Visible Passes

Search period start: 11 April 2026 00:00
Search period end: 21 April 2026 00:00
Orbit: 830 x 854 km, 71.0° (Epoch: 11 April)

Date Brightness Start Highest point End Pass type
(mag) Time Alt. Az. Time Alt. Az. Time Alt. Az.
11 Apr 4.1 01:57:42 18° SE 01:59:39 21° E 02:03:49 10° NE visible
11 Apr 2.2 03:39:32 23° SW 03:43:08 68° WNW 03:48:52 10° NNE visible
12 Apr 4.1 01:43:21 18° ESE 01:44:46 20° E 01:48:49 10° NE visible
12 Apr 2.2 03:25:11 28° SW 03:28:13 71° WNW 03:33:58 10° NNE visible
13 Apr 4.1 01:28:56 18° ESE 01:29:54 19° E 01:33:47 10° NE visible
13 Apr 2.2 03:10:46 34° SW 03:13:18 74° WNW 03:19:03 10° NNE visible
14 Apr 4.1 01:14:29 18° ESE 01:15:01 18° E 01:18:46 10° ENE visible
14 Apr 2.2 02:56:18 41° SW 02:58:23 78° WNW 03:04:09 10° NNE visible
15 Apr 4.2 00:59:59 17° E 01:00:09 17° E 01:03:45 10° ENE visible
15 Apr 2.1 02:41:49 48° SW 02:43:28 81° WNW 02:49:14 10° NNE visible
15 Apr 3.9 04:24:32 10° W 04:28:29 19° NW 04:32:27 10° N visible
16 Apr 4.3 00:45:27 16° E 00:45:27 16° E 00:48:42 10° ENE visible
16 Apr 2.1 02:27:17 56° SW 02:28:33 84° WNW 02:34:19 10° NNE visible
16 Apr 3.9 04:09:28 10° W 04:13:31 19° NW 04:17:35 10° N visible
17 Apr 4.3 00:30:53 16° E 00:30:53 16° E 00:33:39 10° ENE visible
17 Apr 2.1 02:12:42 64° SSW 02:13:38 87° WNW 02:19:24 10° NNE visible
17 Apr 3.9 03:54:31 10° W 03:58:33 20° NW 04:02:43 10° N visible
18 Apr 4.4 00:16:18 15° E 00:16:18 15° E 00:18:35 10° ENE visible
18 Apr 2.0 01:58:06 73° SSW 01:58:43 89° ESE 02:04:29 10° NNE visible
18 Apr 3.9 03:39:55 12° W 03:43:36 21° NW 03:47:50 10° N visible
19 Apr 4.4 00:01:40 14° E 00:01:40 14° E 00:03:30 10° ENE visible
19 Apr 2.0 01:43:28 79° S 01:43:49 86° ESE 01:49:34 10° NNE visible
19 Apr 3.9 03:25:17 13° W 03:28:38 21° NW 03:32:58 10° N visible
19 Apr 4.5 23:47:00 13° E 23:47:00 13° E 23:48:24 10° ENE visible
20 Apr 2.1 01:28:49 82° SE 01:28:54 82° ESE 01:34:40 10° NNE visible
20 Apr 3.8 03:10:37 15° W 03:13:41 22° NW 03:18:05 10° N visible
20 Apr 4.5 23:32:19 12° E 23:32:19 12° E 23:33:16 10° ENE visible
